�������l�o���
Date,Time,MP-1(��Sv/h),MP-2(��Sv/h),MP-3(��Sv/h),MP-4(��Sv/h),MP-5(��Sv/h),MP-6(��Sv/h),MP-7(��Sv/h),MP-8(��Sv/h),����,����(m/s),���J
2023/03/03,00:00,0.571,0.833,0.505,1.062,0.738,0.323,0.586,0.556,�k��,4.1,��
2023/03/03,00:10,0.571,0.833,0.505,1.062,0.738,0.324,0.587,0.556,���k��,4.2,��
2023/03/03,00:20,0.571,0.833,0.504,1.063,0.737,0.324,0.586,0.556,�k��,4.3,��
2023/03/03,00:30,0.570,0.833,0.504,1.062,0.738,0.324,0.587,0.557,�k��,5.3,��
2023/03/03,00:40,0.571,0.832,0.505,1.060,0.739,0.323,0.585,0.556,�k��,5.2,��
2023/03/03,00:50,0.571,0.832,0.504,1.062,0.739,0.323,0.585,0.557,�k�k��,4.6,��
2023/03/03,01:00,0.568,0.830,0.504,1.063,0.738,0.325,0.584,0.556,�k�k��,4.1,��
2023/03/03,01:10,0.572,0.832,0.505,1.061,0.737,0.325,0.585,0.555,�k�k��,4.6,��
2023/03/03,01:20,0.569,0.833,0.504,1.062,0.740,0.324,0.586,0.556,�k�k��,3.9,��
2023/03/03,01:30,0.570,0.832,0.503,1.060,0.738,0.324,0.585,0.556,�k�k��,4.9,��
2023/03/03,01:40,0.571,0.831,0.503,1.062,0.738,0.323,0.586,0.558,�k�k��,4.5,��
2023/03/03,01:50,0.571,0.834,0.503,1.061,0.737,0.325,0.585,0.556,�k�k��,4.5,��
2023/03/03,02:00,0.570,0.832,0.503,1.060,0.739,0.323,0.586,0.555,�k�k��,4.0,��
2023/03/03,02:10,0.571,0.830,0.503,1.064,0.736,0.324,0.585,0.556,�k�k��,4.9,��
2023/03/03,02:20,0.572,0.832,0.504,1.063,0.738,0.323,0.585,0.557,�k�k��,5.6,��
2023/03/03,02:30,0.570,0.829,0.502,1.060,0.739,0.324,0.586,0.555,�k�k��,5.5,��
2023/03/03,02:40,0.571,0.832,0.504,1.061,0.738,0.324,0.586,0.555,�k�k��,5.6,��
2023/03/03,02:50,0.571,0.831,0.504,1.061,0.739,0.323,0.586,0.557,�k�k��,6.8,��
2023/03/03,03:00,0.570,0.833,0.502,1.060,0.739,0.324,0.585,0.556,�k��,7.5,��
2023/03/03,03:10,0.570,0.832,0.502,1.062,0.740,0.325,0.586,0.555,�k��,7.3,��
2023/03/03,03:20,0.570,0.832,0.505,1.062,0.738,0.325,0.585,0.556,�k��,7.3,��
2023/03/03,03:30,0.572,0.832,0.504,1.061,0.738,0.324,0.585,0.556,�k��,7.8,��
2023/03/03,03:40,0.572,0.831,0.504,1.063,0.740,0.323,0.585,0.557,�k��,7.0,��
2023/03/03,03:50,0.571,0.831,0.502,1.061,0.739,0.325,0.583,0.556,�k��,6.7,��
2023/03/03,04:00,0.571,0.833,0.503,1.061,0.740,0.325,0.584,0.554,�k��,5.3,��
2023/03/03,04:10,0.570,0.833,0.504,1.061,0.738,0.324,0.585,0.556,�k��,6.6,��
2023/03/03,04:20,0.571,0.833,0.505,1.062,0.738,0.324,0.586,0.556,�k��,6.2,��
2023/03/03,04:30,0.571,0.832,0.504,1.062,0.737,0.325,0.585,0.555,���k��,5.8,��
2023/03/03,04:40,0.571,0.831,0.504,1.059,0.736,0.324,0.586,0.554,���k��,6.0,��
2023/03/03,04:50,0.571,0.831,0.503,1.060,0.738,0.323,0.586,0.555,�k��,5.1,��
2023/03/03,05:00,0.570,0.833,0.502,1.061,0.738,0.323,0.584,0.555,�k��,6.0,��
2023/03/03,05:10,0.569,0.832,0.503,1.061,0.738,0.323,0.584,0.557,���k��,5.5,��
2023/03/03,05:20,0.569,0.832,0.505,1.060,0.738,0.324,0.584,0.556,���k��,5.2,��
2023/03/03,05:30,0.570,0.831,0.503,1.060,0.737,0.323,0.586,0.557,���k��,7.0,��
2023/03/03,05:40,0.570,0.833,0.502,1.061,0.737,0.324,0.584,0.555,���k��,6.9,��
2023/03/03,05:50,0.571,0.831,0.503,1.060,0.738,0.325,0.584,0.555,��,6.9,��
2023/03/03,06:00,0.570,0.829,0.502,1.061,0.737,0.324,0.585,0.555,���k��,5.7,��
2023/03/03,06:10,0.570,0.834,0.504,1.063,0.738,0.323,0.585,0.555,���k��,4.1,��
2023/03/03,06:20,0.571,0.832,0.502,1.062,0.737,0.323,0.586,0.556,��,3.9,��
2023/03/03,06:30,0.569,0.832,0.504,1.059,0.738,0.323,0.585,0.556,���쐼,4.6,��
2023/03/03,06:40,0.571,0.832,0.504,1.061,0.740,0.323,0.584,0.556,���쐼,4.4,��
2023/03/03,06:50,0.570,0.831,0.504,1.062,0.737,0.323,0.584,0.556,�쐼,4.0,��
2023/03/03,07:00,0.569,0.832,0.505,1.060,0.737,0.322,0.585,0.556,���쐼,4.0,��
2023/03/03,07:10,0.572,0.832,0.504,1.063,0.737,0.324,0.585,0.556,��,4.2,��
2023/03/03,07:20,0.571,0.832,0.503,1.061,0.738,0.323,0.584,0.556,��,3.5,��
2023/03/03,07:30,0.570,0.832,0.503,1.059,0.740,0.323,0.586,0.556,���쐼,2.6,��
2023/03/03,07:40,0.568,0.833,0.505,1.061,0.738,0.323,0.587,0.556,���쐼,2.3,��
2023/03/03,07:50,0.568,0.833,0.505,1.061,0.736,0.323,0.586,0.555,��쐼,2.0,��
2023/03/03,08:00,0.569,0.831,0.507,1.061,0.738,0.324,0.585,0.555,��쐼,1.8,��
2023/03/03,08:10,0.571,0.832,0.506,1.061,0.736,0.324,0.583,0.557,��쐼,2.0,��
2023/03/03,08:20,0.571,0.831,0.504,1.062,0.737,0.324,0.586,0.555,���쐼,1.2,��
2023/03/03,08:30,0.572,0.831,0.506,1.061,0.737,0.323,0.586,0.554,��,1.2,��
2023/03/03,08:40,0.572,0.832,0.506,1.059,0.738,0.324,0.586,0.555,��,4.7,��
2023/03/03,08:50,0.572,0.829,0.505,1.060,0.738,0.324,0.588,0.555,��,4.9,��
2023/03/03,09:00,0.572,0.828,0.505,1.062,0.738,0.323,0.586,0.555,��,5.9,��
2023/03/03,09:10,0.571,0.833,0.506,1.061,0.737,0.325,0.586,0.554,���쐼,4.8,��
2023/03/03,09:20,0.573,0.830,0.506,1.059,0.740,0.324,0.586,0.556,��,6.9,��
2023/03/03,09:30,0.574,0.830,0.506,1.061,0.737,0.325,0.584,0.557,���k��,6.1,��
2023/03/03,09:40,0.571,0.831,0.507,1.061,0.738,0.325,0.585,0.556,���k��,5.6,��
2023/03/03,09:50,0.572,0.831,0.505,1.063,0.739,0.326,0.584,0.558,��,6.3,��
2023/03/03,10:00,0.573,0.830,0.506,1.063,0.737,0.325,0.586,0.557,��,7.0,��
2023/03/03,10:10,0.574,0.832,0.508,1.062,0.739,0.324,0.584,0.558,��,6.8,��
2023/03/03,10:20,0.572,0.832,0.505,1.060,0.739,0.326,0.584,0.556,��,6.4,��
2023/03/03,10:30,0.572,0.831,0.506,1.061,0.739,0.325,0.583,0.555,���k��,5.6,��
2023/03/03,10:40,0.573,0.832,0.509,1.062,0.740,0.325,0.585,0.557,���k��,6.8,��
2023/03/03,10:50,0.572,0.833,0.507,1.063,0.739,0.325,0.583,0.556,���k��,7.9,��
2023/03/03,11:00,0.572,0.831,0.507,1.062,0.740,0.325,0.584,0.557,���k��,7.0,��
2023/03/03,11:10,0.573,0.832,0.507,1.064,0.740,0.325,0.584,0.554,��,6.9,��
2023/03/03,11:20,0.573,0.832,0.506,1.063,0.739,0.324,0.584,0.556,���k��,5.3,��
2023/03/03,11:30,0.571,0.832,0.506,1.062,0.738,0.324,0.585,0.555,���k��,7.1,��
2023/03/03,11:40,0.571,0.832,0.507,1.064,0.739,0.325,0.585,0.556,��,6.1,��
2023/03/03,11:50,0.574,0.834,0.508,1.066,0.741,0.323,0.586,0.556,��,8.3,��
2023/03/03,12:00,0.574,0.832,0.508,1.063,0.739,0.324,0.585,0.556,��,7.9,��
2023/03/03,12:10,0.572,0.831,0.508,1.064,0.737,0.323,0.586,0.557,��,10.9,��
2023/03/03,12:20,0.573,0.833,0.508,1.063,0.740,0.323,0.584,0.557,��,9.7,��
2023/03/03,12:30,0.574,0.833,0.510,1.063,0.739,0.326,0.585,0.559,��,9.0,��
2023/03/03,12:40,0.573,0.834,0.509,1.065,0.738,0.325,0.585,0.558,��,5.8,��
2023/03/03,12:50,0.572,0.834,0.507,1.063,0.737,0.326,0.584,0.556,��,9.0,��
2023/03/03,13:00,0.571,0.833,0.509,1.064,0.737,0.326,0.586,0.556,��,8.1,��
2023/03/03,13:10,0.571,0.833,0.508,1.062,0.738,0.325,0.585,0.557,��,9.3,��
2023/03/03,13:20,0.573,0.833,0.508,1.065,0.739,0.325,0.587,0.558,��,9.4,��
2023/03/03,13:30,0.573,0.836,0.507,1.065,0.738,0.326,0.584,0.557,��,8.6,��
2023/03/03,13:40,0.572,0.834,0.508,1.065,0.738,0.325,0.584,0.557,��,11.3,��
2023/03/03,13:50,0.575,0.834,0.508,1.064,0.739,0.324,0.585,0.556,���쐼,12.7,��
2023/03/03,14:00,0.573,0.834,0.507,1.066,0.738,0.326,0.585,0.558,��,10.8,��
2023/03/03,14:10,0.572,0.834,0.507,1.066,0.739,0.325,0.588,0.556,���k��,10.5,��
2023/03/03,14:20,0.573,0.832,0.508,1.062,0.740,0.326,0.586,0.558,��,8.2,��
2023/03/03,14:30,0.573,0.834,0.506,1.065,0.740,0.325,0.585,0.556,���쐼,8.6,��
2023/03/03,14:40,0.573,0.834,0.507,1.064,0.739,0.326,0.586,0.556,��,7.9,��
2023/03/03,14:50,0.572,0.834,0.507,1.068,0.741,0.319,0.585,0.558,��,8.7,��
2023/03/03,15:00,0.571,0.838,0.506,1.066,0.739,0.318,0.585,0.556,��,10.8,��
2023/03/03,15:10,0.573,0.835,0.508,1.065,0.741,0.316,0.585,0.556,��,8.7,��
2023/03/03,15:20,0.573,0.835,0.508,1.062,0.741,0.322,0.585,0.556,��,10.6,��
2023/03/03,15:30,0.570,0.836,0.509,1.065,0.738,0.325,0.583,0.558,��,9.0,��
2023/03/03,15:40,0.573,0.836,0.508,1.063,0.740,0.325,0.587,0.558,���k��,10.0,��
2023/03/03,15:50,0.573,0.834,0.509,1.065,0.739,0.326,0.583,0.557,���k��,8.0,��
2023/03/03,16:00,0.572,0.835,0.509,1.066,0.739,0.326,0.583,0.558,���k��,7.8,��
2023/03/03,16:10,0.572,0.837,0.508,1.064,0.738,0.326,0.583,0.560,���k��,8.3,��
2023/03/03,16:20,0.573,0.836,0.508,1.065,0.737,0.325,0.585,0.560,���k��,9.4,��
2023/03/03,16:30,0.574,0.837,0.506,1.065,0.739,0.324,0.586,0.560,���k��,6.5,��
2023/03/03,16:40,0.574,0.838,0.507,1.063,0.740,0.325,0.586,0.560,���k��,6.7,��
2023/03/03,16:50,0.572,0.837,0.508,1.066,0.740,0.326,0.588,0.559,���k��,7.0,��
2023/03/03,17:00,0.574,0.835,0.509,1.064,0.741,0.324,0.588,0.559,���k��,5.2,��
2023/03/03,17:10,0.573,0.836,0.507,1.063,0.739,0.324,0.588,0.560,���k��,5.0,��
2023/03/03,17:20,0.573,0.834,0.506,1.065,0.740,0.324,0.587,0.559,���k��,4.6,��
2023/03/03,17:30,0.574,0.836,0.507,1.063,0.740,0.325,0.587,0.559,���k��,4.1,��
2023/03/03,17:40,0.573,0.838,0.508,1.064,0.741,0.325,0.587,0.559,���k��,3.7,��
2023/03/03,17:50,0.572,0.838,0.508,1.063,0.741,0.326,0.586,0.559,���k��,3.1,��
2023/03/03,18:00,0.572,0.834,0.508,1.064,0.740,0.324,0.586,0.558,��,2.9,��
2023/03/03,18:10,0.572,0.836,0.506,1.064,0.742,0.324,0.585,0.559,��,3.5,��
2023/03/03,18:20,0.574,0.836,0.507,1.063,0.740,0.324,0.586,0.558,��,4.8,��
2023/03/03,18:30,0.572,0.836,0.507,1.064,0.740,0.323,0.586,0.559,��,4.8,��
2023/03/03,18:40,0.574,0.836,0.506,1.064,0.741,0.322,0.586,0.559,���k��,4.8,��
2023/03/03,18:50,0.574,0.836,0.508,1.063,0.742,0.322,0.587,0.558,���k��,4.8,��
2023/03/03,19:00,0.572,0.836,0.508,1.064,0.740,0.323,0.588,0.557,���k��,4.5,��
2023/03/03,19:10,0.572,0.836,0.507,1.064,0.740,0.324,0.587,0.558,��,4.1,��
2023/03/03,19:20,0.573,0.837,0.507,1.062,0.740,0.325,0.587,0.559,��,3.6,��
2023/03/03,19:30,0.574,0.834,0.507,1.063,0.741,0.325,0.585,0.558,��,4.6,��
2023/03/03,19:40,0.572,0.835,0.506,1.061,0.740,0.325,0.587,0.558,��,5.4,��
2023/03/03,19:50,0.574,0.836,0.507,1.063,0.741,0.324,0.586,0.557,���k��,5.2,��
2023/03/03,20:00,0.571,0.834,0.507,1.063,0.740,0.325,0.585,0.557,��,4.3,��
2023/03/03,20:10,0.571,0.835,0.506,1.063,0.740,0.324,0.585,0.557,��,3.2,��
2023/03/03,20:20,0.572,0.839,0.508,1.062,0.739,0.324,0.587,0.557,���k��,3.3,��
2023/03/03,20:30,0.573,0.833,0.506,1.064,0.741,0.325,0.586,0.557,���k��,3.0,��
2023/03/03,20:40,0.571,0.836,0.508,1.063,0.740,0.325,0.587,0.557,���k��,2.3,��
2023/03/03,20:50,0.572,0.835,0.507,1.062,0.740,0.322,0.585,0.558,�k��,2.0,��
2023/03/03,21:00,0.571,0.836,0.507,1.063,0.739,0.324,0.587,0.556,�k��,0.8,��
2023/03/03,21:10,0.573,0.836,0.506,1.062,0.740,0.323,0.586,0.556,�k�k��,1.8,��
2023/03/03,21:20,0.571,0.836,0.507,1.063,0.740,0.325,0.585,0.558,�k��,3.9,��
2023/03/03,21:30,0.572,0.835,0.508,1.062,0.741,0.324,0.587,0.555,�k��,3.2,��
2023/03/03,21:40,0.572,0.836,0.507,1.063,0.741,0.324,0.585,0.556,�k��,2.9,��
2023/03/03,21:50,0.574,0.835,0.509,1.062,0.740,0.324,0.585,0.555,�k��,3.8,��
2023/03/03,22:00,0.573,0.837,0.507,1.061,0.739,0.326,0.586,0.558,�k��,3.9,��
2023/03/03,22:10,0.573,0.837,0.507,1.065,0.744,0.325,0.585,0.557,�k��,3.4,��
2023/03/03,22:20,0.573,0.837,0.508,1.064,0.741,0.324,0.586,0.556,���k��,3.1,��
2023/03/03,22:30,0.573,0.836,0.507,1.061,0.740,0.325,0.588,0.556,�k��,2.0,��
2023/03/03,22:40,0.572,0.835,0.508,1.061,0.739,0.324,0.586,0.556,�k��,2.0,��
2023/03/03,22:50,0.573,0.835,0.507,1.062,0.741,0.324,0.586,0.557,�k��,2.2,��
2023/03/03,23:00,0.572,0.834,0.507,1.061,0.740,0.324,0.587,0.557,���k��,2.6,��
2023/03/03,23:10,0.572,0.835,0.507,1.063,0.742,0.324,0.585,0.558,���k��,3.1,��
2023/03/03,23:20,0.572,0.835,0.507,1.062,0.738,0.325,0.585,0.556,��,3.4,��
2023/03/03,23:30,0.572,0.836,0.507,1.064,0.738,0.325,0.586,0.558,��,2.8,��
2023/03/03,23:40,0.571,0.833,0.507,1.062,0.740,0.325,0.587,0.558,��,4.0,��
2023/03/03,23:50,0.572,0.835,0.506,1.064,0.741,0.323,0.585,0.557,��,3.9,��
